Stations météo

réclame
Mon MeteoGroup
Kinlochewe, Grande-Bretagne (99092): Température de l'air & dewpoint: 11.12.2018 05:00:00 - 17.12.2018 05:00:00 (GMT)Kinlochewe, Grande-Bretagne (99092): Température de l'air -20cm: 11.12.2018 05:00:00 - 17.12.2018 05:00:00 (GMT)Kinlochewe, Grande-Bretagne (99092): Quantités de précipitations: 11.12.2018 05:00:00 - 17.12.2018 05:00:00 (GMT)
Date & Time tt [°C] td [°C] tt -20cm [°C] rr [mm]
17.12.2018 05:00:00 - - - -
17.12.2018 04:00:00 3,9 3,6 - 0,6
17.12.2018 03:00:00 3,3 2,9 - 0,2
17.12.2018 02:00:00 3,4 2,3 - 0,0
17.12.2018 01:00:00 4,1 2,4 - 0,2
17.12.2018 00:00:00 3,2 2,2 - 0,0
16.12.2018 23:00:00 2,3 1,7 - 0,0
16.12.2018 22:00:00 1,9 1,5 - 0,0
16.12.2018 21:00:00 2,0 1,3 - 0,0
16.12.2018 20:00:00 4,1 2,1 - 0,0
16.12.2018 19:00:00 3,6 2,7 - 0,0
16.12.2018 18:00:00 3,5 2,5 - 0,0
16.12.2018 17:00:00 4,0 3,2 - 0,0
16.12.2018 16:00:00 4,2 2,6 - 0,8
16.12.2018 15:00:00 6,0 3,5 - 0,0
16.12.2018 14:00:00 5,9 4,6 - 0,2
16.12.2018 13:00:00 5,6 4,2 - 0,6
16.12.2018 12:00:00 6,7 4,1 - 0,2
16.12.2018 11:00:00 6,0 5,4 - 0,2
16.12.2018 10:00:00 5,1 3,9 - 0,6
16.12.2018 09:00:00 4,9 3,3 5,0 0,4
16.12.2018 08:00:00 4,7 2,6 - 1,8
16.12.2018 07:00:00 3,8 2,4 - 3,0
16.12.2018 06:00:00 3,6 1,8 - 0,4
16.12.2018 05:00:00 4,6 0,6 - 0,0
16.12.2018 04:00:00 4,9 0,8 - 0,0
16.12.2018 03:00:00 4,1 0,8 - 0,0
16.12.2018 02:00:00 3,8 0,8 - 0,0
16.12.2018 01:00:00 3,7 1,0 - 0,2
16.12.2018 00:00:00 3,3 1,3 - 0,4
15.12.2018 23:00:00 3,1 1,3 - 1,6
15.12.2018 22:00:00 3,2 1,5 - 1,4
15.12.2018 21:00:00 3,8 1,5 - 1,2
15.12.2018 20:00:00 4,1 1,6 - 1,0
15.12.2018 19:00:00 4,6 1,8 - 1,8
15.12.2018 18:00:00 4,1 1,7 - 0,6
15.12.2018 17:00:00 4,0 1,1 - 0,8
15.12.2018 16:00:00 3,5 0,7 - 0,4
15.12.2018 15:00:00 4,7 -0,4 - 0,0
15.12.2018 14:00:00 5,9 -1,3 - 0,0
15.12.2018 13:00:00 5,3 -3,1 - 0,0
15.12.2018 12:00:00 4,6 -2,7 - 0,0
15.12.2018 11:00:00 4,4 -1,4 - 0,0
15.12.2018 10:00:00 5,2 0,7 - 0,4
15.12.2018 09:00:00 5,6 1,7 5,2 0,2
15.12.2018 08:00:00 6,6 -0,6 - 0,0
15.12.2018 07:00:00 6,2 -0,9 - 0,0
15.12.2018 06:00:00 5,0 -0,8 - 0,0
15.12.2018 05:00:00 6,4 -1,4 - 0,0
15.12.2018 04:00:00 5,7 -2,2 - 0,0
15.12.2018 03:00:00 6,0 -2,1 - 0,0
15.12.2018 02:00:00 5,7 -2,1 - 0,0
15.12.2018 01:00:00 5,3 -2,1 - 0,0
15.12.2018 00:00:00 4,7 -2,8 - 0,0
14.12.2018 23:00:00 5,0 -3,0 - 0,0
14.12.2018 22:00:00 4,8 -4,1 - 0,0
14.12.2018 21:00:00 5,1 -4,4 - 0,0
14.12.2018 20:00:00 5,1 -4,7 - 0,0
14.12.2018 19:00:00 4,6 -5,0 - 0,0
14.12.2018 18:00:00 4,5 -5,4 - 0,0
14.12.2018 17:00:00 4,3 -6,3 - 0,0
14.12.2018 16:00:00 3,9 -5,6 - 0,0
14.12.2018 15:00:00 4,6 -5,8 - 0,0
14.12.2018 14:00:00 7,2 -6,9 - 0,0
14.12.2018 13:00:00 6,0 -5,6 - 0,0
14.12.2018 12:00:00 6,6 -7,4 - 0,0
14.12.2018 11:00:00 5,9 -5,3 - 0,0
14.12.2018 10:00:00 4,3 -5,4 - 0,0
14.12.2018 09:00:00 4,5 -5,7 5,2 0,0
14.12.2018 08:00:00 4,4 -4,9 - 0,0
14.12.2018 07:00:00 4,8 -5,3 - 0,0
14.12.2018 06:00:00 5,0 -5,2 - 0,0
14.12.2018 05:00:00 4,4 -4,4 - 0,0
14.12.2018 04:00:00 4,7 -4,6 - 0,0
14.12.2018 03:00:00 4,9 -4,7 - 0,0
14.12.2018 02:00:00 5,1 -5,2 - 0,0
14.12.2018 01:00:00 4,6 -4,5 - 0,0
14.12.2018 00:00:00 4,9 -4,2 - 0,0
13.12.2018 23:00:00 5,1 -3,7 - 0,0
13.12.2018 22:00:00 4,7 -3,5 - 0,0
13.12.2018 21:00:00 3,3 -4,0 - 0,0
13.12.2018 20:00:00 6,2 -4,7 - 0,0
13.12.2018 19:00:00 5,7 -4,3 - 0,0
13.12.2018 18:00:00 5,4 -4,0 - 0,0
13.12.2018 17:00:00 5,4 -3,8 - 0,0
13.12.2018 16:00:00 5,1 -3,5 - 0,0
13.12.2018 15:00:00 5,0 -3,1 - 0,0
13.12.2018 14:00:00 5,4 -3,2 - 0,0
13.12.2018 13:00:00 5,4 -3,0 - 0,0
13.12.2018 12:00:00 5,7 -3,5 - 0,0
13.12.2018 11:00:00 5,2 -2,9 - 0,0
13.12.2018 10:00:00 4,9 -3,2 - 0,0
13.12.2018 09:00:00 4,9 -3,7 5,7 0,0
13.12.2018 08:00:00 4,7 -4,0 - 0,0
13.12.2018 07:00:00 4,5 -4,3 - 0,0
13.12.2018 06:00:00 4,6 -4,1 - 0,0
13.12.2018 05:00:00 5,0 -4,3 - 0,0
13.12.2018 04:00:00 4,7 -3,6 - 0,0
13.12.2018 03:00:00 4,9 -3,6 - 0,0
13.12.2018 02:00:00 5,0 -1,9 - 0,0
13.12.2018 01:00:00 5,9 -0,5 - 0,0
13.12.2018 00:00:00 6,7 0,8 - 0,0
12.12.2018 23:00:00 6,7 1,6 - 0,0
12.12.2018 22:00:00 7,1 2,2 - 0,0
12.12.2018 21:00:00 7,6 2,6 - 0,0
12.12.2018 20:00:00 7,5 2,9 - 0,0
12.12.2018 19:00:00 7,7 3,5 - 0,0
12.12.2018 18:00:00 7,8 3,8 - 0,0
12.12.2018 17:00:00 7,9 3,7 - 0,0
12.12.2018 16:00:00 8,6 4,1 - 0,0
12.12.2018 15:00:00 9,0 4,5 - 0,0
12.12.2018 14:00:00 9,3 4,9 - 0,0
12.12.2018 13:00:00 9,2 5,2 - 0,0
12.12.2018 12:00:00 9,4 5,1 - 0,0
12.12.2018 11:00:00 9,6 5,4 - 0,0
12.12.2018 10:00:00 9,1 5,5 - 0,0
12.12.2018 09:00:00 9,5 5,7 5,5 0,0
12.12.2018 08:00:00 9,0 5,6 - 0,0
12.12.2018 07:00:00 8,1 5,8 - 0,0
12.12.2018 06:00:00 7,0 5,1 - 0,0
12.12.2018 05:00:00 7,1 4,9 - 0,0
12.12.2018 04:00:00 7,7 5,4 - 0,0
12.12.2018 03:00:00 6,9 5,0 - 0,0
12.12.2018 02:00:00 7,9 5,3 - 0,0
12.12.2018 01:00:00 8,3 5,5 - 0,0
12.12.2018 00:00:00 8,5 6,3 - 0,0
11.12.2018 23:00:00 7,3 5,8 - 0,0
11.12.2018 22:00:00 8,5 6,4 - 0,0
11.12.2018 21:00:00 7,1 5,5 - 0,0
11.12.2018 20:00:00 7,4 5,6 - 0,0
11.12.2018 19:00:00 8,3 5,9 - 0,0
11.12.2018 18:00:00 7,1 5,2 - 0,0
11.12.2018 17:00:00 6,8 4,9 - 0,0
11.12.2018 16:00:00 7,0 4,9 - 0,0
11.12.2018 15:00:00 7,2 5,0 - 0,0
11.12.2018 14:00:00 6,9 4,9 - 0,0
11.12.2018 13:00:00 5,8 4,1 - 0,0
11.12.2018 12:00:00 5,4 3,9 - 0,0
11.12.2018 11:00:00 4,0 2,9 - 0,0
11.12.2018 10:00:00 3,7 2,5 - 0,0
11.12.2018 09:00:00 3,4 2,7 5,2 0,0
11.12.2018 08:00:00 3,0 1,8 - 0,0
11.12.2018 07:00:00 2,5 1,3 - 0,0
11.12.2018 06:00:00 2,7 1,4 - 0,0
11.12.2018 05:00:00 3,2 1,4 - 0,0

tt = Température de l'air
td = dewpoint
tt -20cm = Température de l'air -20cm
rr = Quantités de précipitations

stations d'obs. à proximité